Regional Weather Roundup
Issued by NWS Binghamton, NY

Home | Current Version | Previous Version | Text Only | Print | Product List | Glossary On
Versions: 1 2 3 4 5 6 7 8 9 10 11 12 13 14 15 16 17 18 19 20 21 22 23 24 25 26 27 28 29 30 31 32 33 34 35 36 37 38 39 40 41 42 43 44 45 46 47 48 49 50
000
ASUS41 KBGM 290210
RWRBGM

REGIONAL WEATHER ROUNDUP
NATIONAL WEATHER SERVICE BINGHAMTON NY
1000 PM EDT SUN MAY 28 2017

Note: "fair" indicates few or no clouds below 12,000 feet with no
significant weather and/or obstructions to visibility.

* = Station(s) that does not report precipitation, such as rain,
snow, etc, also no thunder or fog.

NYZ009-015>018-022>025-036-037-044>046-055>057-062-290300
...Central New York...

CITY           SKY/WX    TMP DP  RH WIND       PRES   REMARKS
Binghamton     CLOUDY    63  55  75 S8        29.86R
Cortland       CLOUDY    66  55  68 S7        29.83S
Dansville      CLOUDY    67  59  75 SE9       29.76S
Elmira         LGT RAIN  68  58  70 S12       29.81S
Seneca Falls   MOCLDY    68  57  68 S6        29.79R
Ithaca         CLOUDY    66  57  72 S12G20    29.83S
Hamilton       CLOUDY    64  54  68 SE8       29.85S
Hornell        PTCLDY    64  57  77 SE6       29.81F
Monticello     PTCLDY    59  54  82 SE9       29.94S
Norwich        MOCLDY    64  54  68 S8        29.87R
Oneonta        CLEAR     61 N/A N/A SE3       29.89S
Penn Yan       CLOUDY    68  57  68 S8        29.79S
Rome           CLOUDY    69  57  65 E8        29.84R
Sidney         CLOUDY    63  55  77 SW3       29.87S
Syracuse       CLOUDY    66  57  72 SE7       29.78S
$$

PAZ038>040-043-044-047-048-072-290300
...Northeast Pennsylvania...

CITY           SKY/WX    TMP DP  RH WIND       PRES   REMARKS
Hazleton       CLOUDY    61  59  94 SE6       29.92S
Scranton       LGT RAIN  65  57  75 CALM      29.87S
$$
&&
KEY
WCI = Wind Chill Index
VSB = Visibility
HX  = Heat Index
$$



USA.gov is the U.S. government's official web portal to all federal, state and local government web resources and services.